Regional Weather Roundup
Issued by NWS Charleston, SC

Current Version | Previous Version | Graphics & Text | Print | Product List | Glossary On
Versions: 1 2 3 4 5 6 7 8 9 10 11 12 13 14 15 16 17 18 19 20 21 22 23 24 25 26 27 28 29 30 31 32 33 34 35 36 37 38 39 40 41 42 43 44 45 46 47 48 49 50
000
ASUS42 KCHS 161227
RWRCHS

REGIONAL WEATHER ROUNDUP
NATIONAL WEATHER SERVICE CHARLESTON SC
800 AM EDT WED AUG 16 2017

NOTE: "FAIR" INDICATES FEW OR NO CLOUDS BELOW 12,000 FEET WITH NO
SIGNIFICANT WEATHER AND/OR OBSTRUCTIONS TO VISIBILITY.

NOT ALL STATIONS ARE QUALITY CONTROLLED. USE DATA WITH CAUTION...
ESPECIALLY DEWPOINT OBSERVATIONS.

SCZ027-030-031-034>040-042>050-161300-
...SOUTHEAST SOUTH CAROLINA...

CITY           SKY/WX    TMP DP  RH WIND       PRES   REMARKS
N CHARLESTON   MOSUNNY   80  75  84 W8        30.01R
6HR MIN TEMP:  78; 6HR MAX TEMP:  81;

WATERFRONT PRK   N/A    N/A N/A N/A W6        29.97R
JOHNS ISLAND   FAIR      82  77  83 W7        30.01R HX  91
PINOPOLIS        N/A     81  77  89 W5        29.93R
MONCKS CORNER  FAIR      77  75  94 CALM      30.01R
SUMMERVILLE    FAIR      79  73  83 W5        30.03R
BEAUFORT MCAS  MOSUNNY   82  77  84 W7        30.02R HX  90
6HR MIN TEMP:  80; 6HR MAX TEMP:  82;

BEAUFORT ARPT  FAIR      81  75  83 W9        30.02R
HILTON HEAD IS SUNNY     81  77  89 SW5       30.03R
WALTERBORO     SUNNY     79  73  83 W6        30.03R
ALLENDALE      NOT AVBL

...SOUTHERN MIDLANDS AND PEE DEE...

CITY           SKY/WX    TMP DP  RH WIND       PRES   REMARKS
GEORGETOWN     FAIR      79  79 100 W3        30.01R
KINGSTREE      FAIR      79  77  94 CALM      30.01R
ORANGEBURG     SUNNY     78  74  87 NW5       30.02R
6HR MIN TEMP:  75; 6HR MAX TEMP:  78;

BARNWELL       FAIR      81  77  89 CALM      30.03R
AIKEN          FAIR      77  73  88 W3        30.07R
MANNING        FAIR      79  77  94 NW13      30.02R
COLUMBIA       MOSUNNY   80  74  81 W3        30.01R
6HR MIN TEMP:  76; 6HR MAX TEMP:  80;

SUMTER         MOSUNNY   78  74  86 W7        30.00R
6HR MIN TEMP:  74; 6HR MAX TEMP:  79;

FLORENCE       SUNNY     79  75  87 N5        30.01R
6HR MIN TEMP:  76; 6HR MAX TEMP:  79;

MYRTLE BEACH   SUNNY     79  75  89 CALM      29.99R
N MYRTLE BEACH SUNNY     78  76  93 NW6       29.98R
6HR MIN TEMP:  76; 6HR MAX TEMP:  82;


$$

GAZ063-065-086>088-099>101-113>116-118-119-134>141-150-161300-
...SOUTHEAST GEORGIA...

CITY           SKY/WX    TMP DP  RH WIND       PRES   REMARKS
SAVANNAH ARPT  MOSUNNY   79  76  90 W9        30.04R
6HR MIN TEMP:  77; 6HR MAX TEMP:  81;

HUNTER AAF     SUNNY     79  75  89 W6        30.01R
6HR MIN TEMP:  76; 6HR MAX TEMP:  80; 6HR PCP: TRACE;

FORT STEWART   MOSUNNY   78  73  84 W5        30.02R
6HR MIN TEMP:  77; 6HR MAX TEMP:  80;

STATESBORO     SUNNY     80  76  86 W5        30.05R
SYLVANIA       SUNNY     79  78  95 NW5       30.05R
CLAXTON        FAIR      80  76  89 CALM      30.05R

...CSRA...CENTRAL AND FAR SOUTHEAST GEORGIA...

CITY           SKY/WX    TMP DP  RH WIND       PRES   REMARKS
THOMSON        SUNNY     79  74  85 N6        30.10R
AUGUSTA-BUSH   SUNNY     81  75  82 CALM      30.02R
6HR MIN TEMP:  78; 6HR MAX TEMP:  81;

AUGUSTA-DANIEL SUNNY     81  72  74 NW6       30.04R
SWAINSBORO     FAIR      77  77 100 W5        30.07R
VIDALIA        SUNNY     77  75  94 W5        30.07R
EASTMAN        FAIR      77  77  98 NW5       30.10R
HAZLEHURST     FAIR      78  71  78 CALM      30.06R
ALMA           SUNNY     78  74  87 W5        30.06R
6HR MIN TEMP:  76; 6HR MAX TEMP:  78;

WAYCROSS       SUNNY     78  75  90 W6        30.07R
JESUP          FAIR      81  73  78 CALM      30.06R
BAXLEY         FAIR      75  75 100 W5        30.06R
BRUNSWICK      SUNNY     79  73  83 W6        30.06S
SAINT SIMONS   SUNNY     80  76  87 W6        30.05R
6HR MIN TEMP:  79; 6HR MAX TEMP:  81;


$$

SCZ027-028-034-036>038-045-046-048>050-GAZ119-141-161300-
...LAKE AND SUPPLEMENTAL COASTAL OBSERVATIONS...

STATION/POSITION TIME  TEMP    WIND        PRES    WAVE   SWELL
                       AIR SEA DIR/SP/G            HT/PER HT/PER/DIR
                 (UTC) (F)     (DEG/KT/KT) (MB)    (FT/S) (FT/S/D)
WINYAH BAY       1145   79     310/  4     1015.0S
LAKE MURRAY      1120   78     280/  6/  8 1015.2
ACE BASIN NERRS  1145   80     280/  1     1016.0R
FORT PULASKI     1200   80 85  290/  9/ 11 1017.3
SAPELO ISLAND    1200   80        CALM     1017.0

$$

ANZ835-935-AMZ111-154-330-350-352-354-370-450-454-472-161300-
...C-MAN AND BUOY OBSERVATIONS...

STATION/POSITION TIME  TEMP    WIND        PRES    WAVE   SWELL
                       AIR SEA DIR/SP/G            HT/PER HT/PER/DIR
                 (UTC) (F)     (DEG/KT/KT) (MB)    (FT/S) (FT/S/D)
BUOY 41004       1210   83 83  270/ 10/ 12 1015.7
BUOY 41008       1150   81 84  260/ 10/ 12 1016.7R
FOLLY BEACH CMAN 1200   81     270/  5/  8 1016.7R
CAPERS NEARSHORE 1208   81 85  290/ 12/ 16 1015.8R
FRIPP NEARSHORE  1208   83     290/ 10/ 12 1016.3R


STATION/POSITION TIME  TEMP    WIND        PRES    WAVE   SWELL
                       AIR SEA DIR/SP/G            HT/PER HT/PER/DIR
                 (UTC) (F)     (DEG/KT/KT) (MB)    (FT/S) (FT/S/D)
5E ST. MARYS GA  1130      83                N/A     1/ 9
FRYING PAN BUOY  1210   82 83  290/ 12/ 16 1014.8
BUOY 41025       1150   82 83  300/  8/  8 1013.8R   3/10   3/130/10
CAPE LOOKOUT NC  1200   80     320/  8/  9 1014.2R
BUOY 41002       1150   84 83  250/ 14/ 17 1015.8R   5/ 6   2/ 70/ 9
BUOY 41010       1210   85 86  250/ 12/ 16 1018.1
ST AUGUSTINE FL  1200   80 80  270/  4/  6 1018.6R


$$



USA.gov is the U.S. government's official web portal to all federal, state and local government web resources and services.